Wind_Speed
11 5 4 7 7 7 7 8 8 6 6 6 4 3 1 1 3 2 0 1 8 8 5 2 7 9 9 7 6 6 6 16 21 18 21 22 21 26 28 27 27 28 24 21 20 19 19 18 16 15 15 14 13 12 11 11 11 11 10 10 9 9 8 8 9 8 8 7 7 8 8 8 8 9 10 11 12 12 12 12 12 11 13 14 14 13
10 7 6 7 7 8 7 7 8 6 5 5 5 3 3 1 4 2 2 1 3 7 2 1 9 9 7 6 6 7 4 6 14 14 14 19 22 25 28 28 27 28 26 23 21 21 18 17 17 15 15 15 14 13 13 11 11 11 9 8 8 8 7 7 7 7 7 7 7 8 9 9 9 10 11 11 12 12 11 11 11 12 14 15 14 13
6 6 7 7 6 7 6 6 8 6 6 4 3 4 1 3 3 3 3 3 3 6 3 4 9 7 6 6 3 7 5 3 2 12 13 18 25 25 25 26 25 27 27 24 23 23 19 17 16 15 14 14 13 13 12 12 11 10 9 7 7 7 7 7 8 8 8 9 9 9 10 10 10 11 11 11 11 12 11 11 12 13 15 15 14 13
4 6 7 8 6 7 5 5 7 5 4 4 4 5 2 4 1 1 4 6 5 4 8 7 6 4 5 6 4 7 8 2 5 13 13 14 22 23 22 23 23 25 26 24 22 22 20 18 17 16 14 12 12 11 10 10 8 8 8 7 8 9 9 9 10 10 12 12 12 11 12 12 11 11 11 11 12 12 12 12 12 14 14 15 14 13
4 6 9 9 6 9 7 5 8 6 3 2 4 5 3 2 2 3 2 4 7 6 8 9 5 1 3 4 3 5 9 9 10 14 14 14 19 21 21 21 22 23 24 23 21 21 21 21 20 16 13 12 12 12 12 10 8 7 8 7 7 8 8 9 10 11 12 13 12 12 13 13 13 13 13 13 12 12 12 12 11 13 15 16 15 14
5 5 12 10 5 8 7 5 7 7 4 2 3 6 7 5 4 6 6 5 6 2 4 6 3 1 2 2 2 2 4 7 9 10 12 14 16 19 21 19 21 24 25 23 21 20 21 22 22 17 13 14 14 13 13 11 8 8 7 6 5 5 6 7 8 10 11 10 11 12 14 15 14 15 15 14 13 13 12 12 11 13 15 17 17 16
5 5 9 10 7 7 7 5 6 7 6 2 5 8 9 8 7 8 8 5 4 3 6 4 2 2 0 3 5 4 4 5 7 8 10 12 13 15 17 16 19 23 25 23 20 17 17 17 19 17 12 11 11 11 10 8 7 5 5 4 4 7 10 9 8 9 11 10 11 13 14 16 16 16 16 16 15 15 14 14 13 14 15 16 16 16
6 8 7 8 9 7 6 5 5 8 8 3 6 9 10 8 9 9 8 6 3 2 4 4 0 3 3 5 6 5 4 4 4 6 8 10 12 14 15 14 17 21 23 22 19 17 15 14 14 14 12 9 8 8 7 6 5 4 7 6 7 9 11 12 11 11 11 11 12 13 13 14 15 16 17 18 18 17 17 16 15 15 15 16 15 14
5 10 7 8 8 6 5 5 8 10 6 6 6 8 9 9 9 9 7 5 4 4 3 4 1 2 3 3 5 4 5 5 5 7 9 9 12 14 14 14 16 19 19 18 19 16 14 12 11 11 11 9 7 6 5 5 5 6 7 6 8 9 9 10 12 14 14 14 14 14 14 13 13 15 16 18 19 19 20 20 19 19 19 18 18 17
3 11 11 8 6 6 6 5 9 11 5 6 6 4 3 4 4 5 6 4 4 4 6 9 6 3 1 3 5 4 6 8 6 5 9 11 13 14 14 15 17 19 18 17 18 16 13 12 10 9 9 8 5 3 2 1 3 5 6 7 8 9 8 9 12 15 16 15 16 16 16 15 15 15 16 17 17 18 20 21 22 23 24 24 23 22
3 9 12 7 5 6 7 5 9 11 7 4 4 1 2 1 4 4 2 4 5 3 6 11 10 5 2 4 7 5 4 10 9 5 8 12 14 16 16 15 17 18 17 16 17 15 13 12 9 7 5 4 3 1 1 2 3 5 8 9 7 6 7 9 11 13 14 15 17 17 17 18 18 19 21 21 20 21 22 23 24 25 27 27 27 26
3 5 7 5 8 8 5 4 7 9 7 4 3 3 2 3 3 4 3 3 4 5 5 10 10 5 4 5 7 5 1 9 12 8 9 12 14 18 19 18 18 19 17 16 15 14 12 11 8 5 3 2 2 1 1 2 3 5 6 6 4 4 5 5 6 6 8 10 12 12 13 15 16 18 19 20 21 23 24 26 27 28 29 29 29 29
4 3 2 4 10 11 7 3 4 5 5 5 3 5 4 2 0 1 1 1 4 5 4 9 12 5 5 4 4 5 4 7 10 10 11 15 16 17 19 21 21 21 19 17 16 15 13 11 10 8 7 5 2 1 1 0 1 2 2 2 3 2 2 1 2 2 3 4 5 6 7 7 8 9 10 11 13 16 18 20 22 23 24 26 26 27
3 5 5 4 7 11 11 5 4 4 4 7 5 5 5 3 3 2 3 1 3 4 4 4 12 5 3 1 5 4 7 10 14 15 15 18 19 18 20 21 21 21 20 18 16 15 14 13 12 10 9 7 5 3 3 4 4 3 2 2 3 3 2 1 1 1 2 2 2 4 5 5 5 5 6 8 9 11 13 14 15 17 18 19 20 20
6 5 6 6 4 8 11 8 7 6 5 6 5 6 5 4 5 3 4 3 3 3 4 1 6 3 1 1 5 1 12 17 20 19 18 20 20 20 21 21 21 20 19 17 16 15 13 12 10 9 9 8 7 6 6 6 5 3 4 4 4 4 3 1 1 1 2 2 2 3 4 5 6 6 6 7 8 9 10 12 13 13 14 16 17 17
7 6 5 7 8 8 10 8 8 8 5 4 4 5 4 6 5 1 3 6 4 3 1 0 2 0 1 2 3 8 16 19 20 20 20 20 21 22 21 21 21 20 18 17 16 14 12 10 10 10 11 9 9 10 9 7 6 5 6 6 5 5 3 2 2 2 2 2 3 3 4 4 5 6 6 6 6 6 7 8 9 10 11 13 14 15
6 5 5 4 8 8 10 11 10 9 5 2 4 5 5 5 7 3 1 1 3 3 1 0 2 2 2 2 5 11 14 15 17 17 18 21 23 23 21 21 21 19 18 17 15 14 13 13 13 12 11 11 11 10 7 6 7 8 8 7 5 5 4 3 3 3 2 2 2 3 4 5 5 6 6 6 6 5 5 4 5 7 8 10 12 13
5 3 5 5 7 11 12 11 9 11 10 5 5 7 3 3 4 3 2 2 3 2 1 0 2 4 2 1 5 10 12 14 14 13 16 20 22 22 21 22 21 19 18 17 16 16 15 14 13 12 12 12 11 8 7 8 10 10 8 6 5 5 5 4 4 3 2 2 2 3 5 5 6 7 7 6 6 5 3 2 3 4 6 7 9 10
3 1 6 5 9 9 8 6 4 7 7 5 7 8 5 4 2 1 3 2 2 1 2 0 3 4 3 4 8 11 13 16 15 13 14 16 19 22 23 22 21 19 19 19 17 16 15 15 14 14 14 12 10 9 9 10 10 10 9 6 5 5 5 5 3 3 2 2 3 4 6 7 7 8 7 7 5 4 4 4 4 5 6 7 8 10
2 2 4 4 6 6 4 4 4 6 3 3 5 6 3 3 4 3 2 3 4 3 1 2 3 4 3 7 12 14 15 17 16 13 13 14 18 22 24 23 22 20 20 19 18 17 17 17 15 14 13 12 11 10 10 11 10 9 8 6 6 6 6 5 4 3 3 4 5 6 7 8 8 8 8 7 6 5 5 5 5 6 7 8 9 10
2 3 2 4 2 4 3 5 7 7 5 4 5 5 2 2 3 2 1 2 4 4 3 2 2 4 3 7 13 16 15 15 15 13 13 17 21 24 26 25 22 21 21 20 20 20 19 18 15 13 11 10 10 11 12 12 11 9 7 6 7 7 8 8 7 6 6 7 7 8 8 8 9 8 8 8 7 6 6 5 5 6 7 7 9 10
1 3 2 2 1 4 5 5 7 10 8 7 6 6 5 4 4 3 2 1 3 4 5 4 3 5 3 3 10 12 12 13 16 16 16 20 24 25 26 25 24 23 23 23 23 22 20 18 16 13 10 11 12 13 14 13 10 8 7 7 8 9 10 11 11 10 10 10 10 10 10 9 9 9 8 9 9 9 8 8 8 8 8 9 10 11
3 3 2 3 3 5 8 4 6 10 8 6 4 5 5 4 5 6 4 3 1 3 2 3 2 4 4 1 7 11 12 16 20 21 20 22 25 26 25 25 25 26 25 25 24 22 21 19 16 12 12 13 14 14 14 13 11 9 8 9 9 11 12 13 13 12 12 12 12 12 11 11 10 9 9 10 10 11 11 12 12 13 12 12 13 13
3 2 1 3 4 3 6 3 2 3 4 4 2 3 5 5 5 6 5 4 3 3 3 3 0 3 3 2 10 16 19 20 21 23 24 23 23 25 26 27 28 28 26 25 24 22 20 18 15 14 14 15 15 15 15 14 12 10 10 11 11 12 13 13 13 12 12 13 14 14 13 13 12 11 11 12 12 12 12 13 14 15 15 15 15 15
5 1 2 1 2 3 2 2 1 0 2 3 3 3 4 5 7 5 3 4 2 3 5 4 3 3 0 5 12 16 18 18 20 24 27 26 25 26 28 29 30 29 28 27 25 22 19 17 16 15 16 17 16 16 16 14 12 12 12 12 12 12 13 13 12 12 13 13 14 15 16 15 14 13 13 14 14 14 14 14 15 15 16 16 17 17
6 3 3 4 3 3 4 5 4 3 2 1 2 4 4 6 9 5 3 4 2 3 4 4 3 2 3 8 12 13 14 15 18 23 26 27 28 29 30 32 31 30 30 28 25 22 19 18 17 17 17 17 17 16 15 14 13 13 13 12 11 11 12 12 12 12 13 14 15 16 16 16 15 14 15 15 15 15 15 15 15 16 17 17 18 18
3 2 5 6 6 6 6 7 6 5 4 2 4 6 5 6 8 7 5 4 4 4 3 3 5 7 8 11 14 14 14 15 17 21 23 24 28 30 32 33 32 31 31 28 25 22 20 19 18 18 19 18 17 16 15 14 14 13 12 12 11 11 11 11 11 12 13 14 15 16 15 15 15 14 15 15 15 16 16 16 16 17 17 18 18 19
4 3 6 5 5 6 4 5 4 5 6 4 6 7 5 5 7 8 6 5 6 6 2 4 9 12 12 14 16 17 16 15 16 20 24 26 29 32 33 33 32 31 31 29 25 23 21 20 20 19 19 19 17 16 16 15 14 13 12 11 11 10 9 9 10 12 14 14 14 14 13 14 13 13 14 14 15 17 18 18 18 18 18 19 19 20
5 4 5 4 1 3 4 4 3 5 5 2 4 4 3 4 7 9 7 5 8 7 5 10 15 14 15 17 17 17 18 18 20 24 28 30 31 33 33 32 32 32 31 29 26 24 23 22 21 20 20 19 18 17 16 16 15 13 12 11 10 9 8 8 9 12 13 14 13 11 11 11 12 12 13 14 16 18 19 18 18 19 19 20 21 21
4 3 5 6 3 5 6 6 4 6 7 4 5 3 1 3 5 5 3 2 6 5 5 14 15 8 9 13 12 16 21 24 26 29 31 32 32 33 33 33 33 32 31 29 26 25 24 23 21 21 21 19 18 17 17 17 15 13 12 11 10 9 8 8 9 11 13 14 13 11 10 10 11 12 13 14 17 19 19 19 19 20 21 22 22 22
3 3 2 6 4 4 5 6 3 6 10 6 4 6 5 5 5 5 4 4 6 6 7 14 10 1 4 10 14 20 26 27 27 28 30 32 33 33 32 33 33 32 30 28 27 25 24 23 22 22 21 20 18 18 17 16 15 14 13 12 11 10 9 8 9 12 14 15 14 12 11 12 12 13 14 16 18 19 20 20 21 21 22 23 23 23
4 2 1 5 5 2 3 4 3 3 10 8 4 6 5 3 4 3 3 3 5 8 11 12 8 4 7 13 17 21 25 26 27 29 29 30 32 33 33 34 34 32 30 28 27 26 24 24 23 22 21 21 19 18 17 16 16 15 15 16 14 12 10 10 12 15 17 19 18 17 16 15 15 16 17 18 20 21 21 22 22 23 23 23 24 24
5 6 1 3 4 2 3 2 4 3 6 3 2 3 2 1 2 3 2 2 5 11 11 7 6 8 12 16 18 18 21 24 28 31 33 32 31 32 34 35 34 32 31 29 28 27 25 24 24 22 21 21 19 17 16 16 16 16 17 18 17 15 14 15 17 19 21 22 22 21 20 19 19 20 20 21 21 21 22 22 22 23 23 23 23 23
5 8 4 2 4 4 3 3 4 1 3 4 5 3 4 3 3 5 3 3 3 3 3 3 6 12 16 18 20 20 22 26 30 34 37 38 36 33 33 35 33 32 32 29 28 27 26 25 24 22 21 21 19 18 16 15 16 16 17 18 19 18 19 20 21 22 23 24 23 22 21 21 21 22 21 21 20 20 20 21 22 22 22 22 23 23
6 6 3 2 3 4 1 4 3 4 5 4 5 4 3 4 7 8 5 3 3 3 1 4 10 16 18 18 21 23 24 28 32 34 36 37 38 38 37 36 34 33 32 29 28 28 27 26 25 24 23 22 20 18 18 17 17 17 17 18 20 20 21 22 22 23 24 25 24 23 22 21 21 22 22 21 21 20 21 21 22 22 23 23 24 24
8 6 3 2 2 3 2 3 3 4 5 3 5 3 3 6 7 8 4 3 3 2 2 7 10 12 16 19 22 24 26 28 28 28 31 31 34 38 39 37 36 34 32 30 30 30 28 26 25 25 24 22 20 19 18 18 18 18 18 18 20 21 21 21 22 23 23 24 24 24 24 24 24 24 24 25 24 24 24 23 23 23 24 24 24 24
7 6 4 3 1 3 3 1 0 3 4 3 2 2 5 5 5 6 3 3 5 3 3 9 12 12 16 21 24 28 30 27 17 15 23 27 31 36 37 36 35 34 31 30 29 28 26 24 24 24 23 22 21 19 19 19 19 19 19 19 19 20 20 21 22 22 22 23 23 24 24 25 26 26 26 27 28 27 26 25 24 24 24 25 25 26
4 4 6 5 1 2 4 2 1 2 3 5 6 8 7 6 6 6 5 2 5 4 8 12 13 14 17 21 27 30 27 18 7 9 22 28 31 35 35 33 32 31 30 30 28 27 26 24 24 23 23 22 21 20 20 20 20 20 20 19 18 19 19 20 20 21 21 22 22 23 24 25 26 27 27 27 28 28 27 25 24 25 25 26 28 28
8 5 4 6 3 2 4 3 3 3 4 6 6 6 8 9 7 5 4 3 5 10 17 17 15 17 21 26 31 29 19 10 6 12 25 32 33 36 36 33 32 30 29 29 27 27 27 25 24 24 23 23 23 22 20 19 20 20 19 18 18 17 17 18 19 19 20 20 21 22 23 24 25 26 26 27 27 28 27 26 25 26 26 28 29 30
7 5 4 5 4 3 4 3 3 3 3 4 4 6 10 11 6 5 1 5 8 18 26 26 23 25 28 31 30 23 12 9 12 21 31 35 35 36 35 34 33 32 30 28 27 27 27 25 25 24 23 23 23 22 21 19 19 19 19 18 18 16 16 16 17 17 18 18 19 20 21 22 23 24 25 26 26 27 27 27 26 26 27 28 30 30
4 4 3 4 3 3 4 2 2 3 4 4 4 11 14 9 5 4 4 7 15 25 31 33 32 33 36 36 30 19 7 8 21 33 37 37 37 37 35 33 33 32 30 29 28 27 27 26 24 23 23 23 23 22 21 19 18 18 18 18 17 15 15 15 14 15 15 16 18 18 19 20 21 22 24 25 25 25 26 27 26 27 27 28 29 30
2 2 2 3 3 3 3 2 0 3 4 4 7 11 13 6 3 5 4 8 24 31 29 33 35 35 37 36 29 21 14 18 31 40 39 39 40 38 35 33 32 31 29 29 28 27 27 26 24 23 23 24 23 22 21 19 18 18 18 17 16 15 14 14 13 13 13 14 16 16 17 18 19 21 22 23 24 24 25 26 26 26 27 27 28 29
2 2 2 1 3 3 2 2 2 3 5 14 16 7 5 4 4 6 7 13 27 32 30 32 34 35 36 32 25 23 26 33 40 40 38 40 40 38 36 34 33 32 32 30 29 28 27 26 24 22 23 24 23 21 21 20 18 17 17 17 16 15 14 13 12 12 12 12 14 15 15 16 17 19 20 22 23 23 24 25 25 25 26 26 27 28
1 2 2 2 3 4 2 3 4 3 6 17 14 3 5 6 4 9 15 18 23 28 30 31 32 33 34 31 29 31 36 41 44 40 39 40 39 38 37 35 34 34 33 32 31 28 27 26 24 22 23 24 23 21 20 19 18 17 17 16 15 14 13 12 12 11 10 10 11 13 13 14 15 16 18 20 21 22 22 23 24 24 25 26 27 28
2 3 4 2 2 4 3 5 5 3 4 11 5 1 9 10 4 8 18 25 29 31 31 32 32 31 32 32 34 37 41 45 45 42 40 40 39 39 38 37 36 35 33 32 31 28 26 25 24 24 24 24 23 22 21 19 18 17 16 15 14 13 12 11 11 10 10 9 9 10 11 11 12 13 15 17 20 21 22 22 23 24 24 25 27 28
2 1 3 3 1 1 1 1 1 3 1 7 5 5 12 13 8 9 15 25 33 34 33 34 35 33 33 34 37 40 43 46 45 41 40 41 39 39 39 37 36 34 32 32 30 26 26 25 25 26 26 25 23 22 21 20 18 17 16 15 13 11 10 10 10 9 9 8 7 8 8 9 10 11 13 15 18 20 21 21 22 23 24 25 27 28
2 1 3 3 2 2 0 1 2 2 3 6 7 9 12 13 12 12 14 21 30 33 33 34 35 33 33 35 38 41 44 45 45 42 41 41 40 39 39 37 35 34 33 32 29 26 26 27 26 27 26 24 22 21 20 20 18 16 16 15 14 11 9 9 9 9 9 7 6 6 6 7 8 9 11 13 16 18 19 20 21 22 23 24 26 29
2 2 2 2 2 2 2 1 2 4 5 7 9 11 13 14 15 15 16 22 29 32 32 33 34 35 34 35 39 43 43 43 44 43 42 40 39 39 38 36 36 35 33 30 28 26 25 27 29 28 25 24 23 20 19 19 18 16 15 15 14 12 10 9 8 8 7 6 5 4 5 5 5 7 10 11 14 16 17 18 19 21 22 23 25 28
2 3 3 3 3 1 2 2 5 6 3 3 7 11 14 15 17 18 19 24 30 32 31 32 34 35 36 37 40 43 43 42 44 44 42 40 39 38 37 37 36 35 32 30 28 25 24 27 30 28 25 24 23 20 19 19 18 16 14 12 11 11 10 9 8 7 6 6 5 4 4 4 4 6 7 10 13 15 16 16 18 19 20 22 24 26
3 3 3 4 3 1 3 6 9 5 1 4 9 13 15 16 18 21 23 27 31 33 34 34 34 34 35 37 40 43 43 42 42 42 42 41 39 39 38 38 36 33 31 29 27 24 24 27 30 28 25 23 21 20 18 18 17 15 13 11 10 9 9 10 8 6 6 6 5 4 3 3 4 4 5 8 12 14 14 15 16 17 18 20 22 24
3 6 6 5 4 4 6 13 12 5 4 9 14 15 16 17 18 23 26 29 32 34 36 37 37 35 36 38 39 41 43 42 42 42 41 40 39 39 39 37 35 33 31 29 27 26 26 27 27 27 25 22 20 19 19 19 17 16 14 12 11 9 9 9 9 8 6 5 5 4 2 2 3 3 5 8 12 13 13 14 14 15 16 18 20 22
Wind_Direction
167 164 193 197 196 188 189 184 186 176 143 141 121 89 104 153 253 246 35 179 120 90 352 347 116 132 142 134 140 151 137 142 145 137 136 137 133 131 131 132 132 132 140 152 152 149 152 154 153 152 156 157 152 152 155 158 162 168 180 182 180 188 200 209 216 225 229 236 248 257 269 278 285 286 283 284 287 288 291 292 293 293 295 299 302 305
165 189 215 200 187 180 190 188 175 159 134 117 105 68 10 351 254 280 84 244 109 88 0 39 112 123 115 109 136 125 112 164 154 141 134 128 125 126 127 129 128 127 139 153 153 155 158 156 155 155 158 162 161 160 159 163 167 168 175 182 187 196 205 216 229 239 242 244 251 256 262 268 274 275 274 274 276 279 284 289 292 294 295 297 300 302
178 217 218 197 175 170 194 184 167 169 144 117 114 113 7 281 262 316 11 4 36 92 142 133 112 106 70 68 73 101 111 306 121 131 135 128 125 126 127 128 126 124 137 148 144 149 157 157 160 162 160 163 166 167 165 167 171 173 175 187 205 214 218 231 245 253 260 260 259 266 267 267 270 271 272 272 271 271 276 285 289 290 292 294 297 299
188 235 211 186 159 164 207 190 158 169 149 119 135 138 210 257 155 358 346 14 31 88 141 131 96 88 76 84 61 86 120 86 81 120 129 126 123 127 131 131 129 128 137 143 139 144 151 153 160 162 159 163 169 171 173 178 183 187 192 200 211 222 228 239 249 252 259 261 261 271 276 277 276 272 272 272 273 276 280 285 286 286 286 288 292 295
230 240 183 160 153 170 200 198 160 162 186 168 166 158 161 197 129 134 145 66 53 65 127 119 82 79 86 85 78 97 131 133 119 120 119 119 121 128 134 133 134 137 142 145 143 147 149 151 157 159 163 171 174 171 169 182 201 204 201 195 197 217 235 243 251 253 258 265 265 264 267 273 274 272 272 269 269 274 278 279 280 283 284 286 290 295
253 235 165 153 161 179 190 200 176 163 179 252 213 179 161 148 119 126 130 90 70 62 175 135 111 229 24 42 183 168 160 142 131 127 116 117 123 128 130 131 134 136 144 148 146 143 138 142 151 157 163 165 163 159 151 159 179 188 194 187 184 225 255 247 245 253 262 270 270 263 259 261 265 269 272 273 274 275 277 280 283 287 287 287 292 295
227 208 160 161 167 178 196 205 190 158 140 246 234 181 160 143 135 141 131 107 113 183 216 203 167 167 229 255 216 205 202 160 140 133 120 123 125 123 125 127 130 131 137 144 144 140 131 131 142 148 154 155 152 150 145 152 165 186 213 220 232 253 256 249 249 258 261 264 269 269 264 261 262 264 267 271 275 278 282 283 284 287 288 289 293 297
190 186 167 169 167 176 203 205 186 150 130 233 235 168 156 154 163 168 148 140 156 161 211 237 85 128 196 222 193 183 185 165 150 137 128 134 127 120 125 128 129 130 133 137 139 141 138 135 140 143 147 153 151 147 151 158 165 218 241 240 255 253 240 242 252 260 261 262 267 271 269 267 265 263 263 263 266 272 279 281 282 284 285 289 295 298
182 185 176 162 170 189 197 176 161 146 142 231 213 151 158 176 180 178 164 160 145 125 195 236 188 136 204 180 143 168 188 181 186 157 140 141 132 124 128 129 126 129 132 134 134 135 136 136 139 141 142 147 149 148 157 168 187 231 246 247 258 255 238 237 247 259 265 263 263 265 266 265 263 262 261 262 264 268 273 278 281 282 283 286 290 293
211 189 183 162 174 196 190 167 153 153 174 220 187 131 144 171 154 156 168 157 126 151 203 207 184 135 218 199 148 178 205 187 188 165 147 145 139 133 131 129 126 129 132 131 130 130 127 125 128 132 131 130 135 150 171 194 204 227 262 276 270 262 256 250 251 259 264 262 262 263 261 259 258 257 256 258 262 265 269 274 277 279 281 283 286 288
267 185 187 178 178 187 188 181 159 166 178 165 150 161 282 312 65 79 139 117 126 214 218 191 181 150 186 226 184 193 213 172 165 158 153 148 143 139 134 132 134 136 135 129 127 127 126 126 126 129 132 126 135 192 273 296 276 266 274 274 264 249 248 252 252 254 258 262 265 265 262 260 258 257 257 256 257 260 264 266 269 273 276 280 283 285
279 182 190 176 176 176 172 184 170 174 177 143 126 150 221 304 29 37 0 74 153 245 244 183 170 164 202 228 208 199 143 156 164 161 155 148 142 139 135 136 139 142 140 132 129 129 131 135 132 137 151 127 117 82 355 308 282 268 259 248 236 224 231 241 241 243 249 254 258 261 261 261 261 262 263 261 259 260 262 265 267 269 271 274 276 278
236 235 255 169 185 184 162 166 179 173 166 157 145 133 148 260 292 189 262 172 204 245 257 178 161 185 236 238 238 203 143 145 148 138 144 143 137 134 134 136 138 140 140 133 129 128 128 130 130 136 139 141 168 251 323 224 183 191 193 201 205 183 175 242 251 250 250 247 254 261 265 268 268 270 273 272 270 269 270 272 273 273 273 272 272 272
221 293 275 187 198 189 170 162 174 186 167 162 168 154 161 176 148 204 231 295 239 241 301 184 164 194 259 289 293 236 154 136 126 124 134 137 134 135 135 137 137 139 138 132 131 132 129 131 134 137 141 151 180 200 164 141 138 144 156 178 176 141 111 40 354 336 312 300 296 288 290 295 292 289 288 285 285 285 286 287 289 289 287 284 282 279
185 250 234 195 205 180 175 181 166 157 159 168 165 145 160 173 149 184 203 187 214 216 330 335 166 199 236 328 308 162 124 122 128 133 133 133 136 139 138 138 139 140 138 135 136 135 133 134 132 135 142 141 144 155 154 143 144 156 156 159 154 131 113 86 39 352 342 338 318 304 306 311 312 312 307 299 294 292 292 294 296 298 298 297 296 293
186 238 244 203 203 173 171 187 158 136 158 189 148 134 181 192 149 109 191 175 169 152 32 314 152 60 101 64 40 114 116 118 131 138 135 135 138 139 138 139 142 144 142 140 137 133 130 130 130 136 141 136 132 142 147 141 145 159 156 150 139 121 106 70 21 359 357 338 309 306 319 328 330 328 322 317 312 305 302 300 299 300 300 300 300 298
175 248 284 200 205 198 179 180 169 161 175 170 149 180 211 167 129 115 205 145 110 132 151 170 124 103 111 76 97 121 122 128 139 140 136 137 138 138 139 141 144 144 141 137 132 131 131 132 135 139 143 142 138 138 140 143 150 150 145 139 125 106 85 56 29 24 17 339 324 342 354 355 349 344 341 341 342 338 330 316 307 307 307 307 305 303
155 238 270 177 194 226 201 182 187 180 162 140 179 198 186 130 109 119 160 44 50 140 231 313 165 174 181 170 136 131 133 143 149 142 136 139 142 141 140 143 144 142 138 134 133 137 139 138 138 140 141 141 140 142 149 150 146 139 134 132 121 94 68 58 50 53 56 17 10 12 9 6 359 360 5 7 6 8 14 18 358 339 328 322 318 314
147 218 271 193 182 216 196 163 218 209 171 145 178 174 145 161 202 127 154 171 135 162 287 221 181 200 206 180 159 153 155 156 151 144 141 145 147 144 143 145 145 144 141 138 140 142 141 141 140 138 137 135 136 143 148 145 141 136 132 123 105 82 69 74 79 86 86 37 21 19 15 14 14 21 30 35 39 51 60 52 31 9 352 345 340 336
129 123 272 239 182 181 154 148 207 218 198 89 145 163 142 149 175 170 160 162 148 153 237 169 182 220 209 178 171 168 166 158 152 151 148 147 148 146 147 148 147 148 149 147 147 144 139 140 138 135 134 134 135 139 142 144 142 135 127 111 90 78 77 84 86 79 69 47 33 27 24 24 28 36 46 56 64 70 67 53 34 17 6 356 349 348
73 136 235 285 215 158 177 203 192 181 170 129 140 172 171 99 126 158 134 104 125 143 169 162 203 240 211 178 179 172 166 160 155 151 145 146 148 148 148 147 145 147 151 154 151 143 139 138 134 132 132 136 142 143 141 142 141 134 121 103 88 79 78 81 81 78 71 62 51 43 39 35 34 40 50 59 60 56 57 49 31 16 5 354 349 351
140 155 192 288 226 182 234 233 180 174 170 153 161 181 175 141 122 137 201 255 104 131 165 161 196 253 268 195 180 169 159 158 153 146 141 146 149 149 148 146 145 146 149 151 148 142 139 136 131 131 132 137 144 143 138 137 140 137 119 97 84 78 79 80 81 81 75 69 63 56 52 47 43 43 46 49 45 38 34 28 20 14 2 353 352 353
152 125 154 255 231 211 246 253 171 177 163 138 170 181 155 140 130 140 190 223 117 111 139 117 139 263 290 230 152 147 145 148 148 144 141 146 150 149 148 146 146 146 147 148 146 142 138 134 132 133 134 135 136 135 134 134 138 133 108 92 85 81 82 82 81 80 75 71 68 65 64 62 58 54 49 46 42 35 29 24 19 18 15 12 9 3
165 123 125 265 296 282 273 313 79 146 134 128 208 169 147 160 148 148 172 170 148 153 130 94 197 261 288 101 123 131 137 141 146 147 144 147 149 148 148 149 148 147 146 146 145 141 138 136 136 136 133 132 133 133 134 132 130 120 105 97 92 89 87 84 80 76 72 70 70 69 69 69 67 63 57 52 47 42 37 31 27 26 28 27 24 22
186 187 95 121 343 342 299 327 45 204 189 185 195 158 149 136 116 120 132 112 133 198 148 140 218 246 221 120 123 130 137 141 150 152 148 148 149 148 149 150 149 147 147 146 144 142 142 142 140 137 134 134 133 133 132 130 125 117 110 106 99 94 87 79 73 69 67 68 69 69 69 69 69 66 62 58 54 51 45 40 37 35 35 33 31 30
177 191 130 146 164 166 192 211 207 198 223 250 146 141 141 130 129 136 126 116 184 222 143 144 198 191 133 135 135 140 145 148 154 155 153 151 151 151 150 150 151 151 150 147 145 145 147 145 143 140 138 137 135 134 134 132 128 122 118 112 101 93 86 78 72 69 70 69 67 67 68 69 69 67 65 63 60 57 52 47 44 42 39 36 33 32
136 173 158 153 172 187 198 217 213 161 159 194 160 153 157 153 140 119 113 158 183 168 161 187 157 142 152 158 154 156 157 154 158 157 153 149 148 148 150 152 153 153 151 149 147 149 150 146 144 142 140 140 139 139 138 135 133 130 124 114 103 96 90 84 77 75 73 67 64 65 67 69 70 68 65 62 59 57 53 51 49 45 42 37 34 33
93 196 186 142 180 222 222 233 232 135 142 175 163 159 159 150 140 134 157 192 154 136 219 209 155 153 171 176 168 166 163 159 160 157 150 148 149 150 153 154 153 151 150 150 152 154 152 147 145 143 142 143 143 140 139 137 136 132 123 115 111 107 100 92 83 78 71 64 63 66 68 70 70 67 64 58 54 52 51 52 52 49 44 39 35 34
107 193 199 126 148 303 352 306 291 102 107 94 105 124 138 157 170 167 181 190 152 154 207 182 169 173 179 180 175 169 165 159 155 153 150 151 153 153 154 153 151 150 150 151 155 157 153 147 146 146 145 146 144 140 138 137 135 131 124 119 120 116 108 97 87 78 70 66 69 74 74 74 71 67 64 58 52 49 50 52 52 49 45 40 37 35
129 193 192 127 92 359 3 322 299 121 108 56 40 25 45 156 164 148 144 146 129 128 163 163 169 183 177 176 171 159 155 150 147 150 152 154 157 157 156 153 151 152 153 154 158 157 152 148 148 149 148 146 144 141 138 136 133 130 124 121 123 120 112 103 90 78 72 72 79 87 87 81 76 71 67 58 52 50 51 52 51 47 43 40 37 36
164 196 183 108 80 345 351 349 330 132 117 94 50 11 28 90 98 96 110 105 87 76 120 142 144 129 151 152 146 148 151 148 148 153 156 159 161 159 155 153 152 153 154 157 158 155 151 150 151 151 148 146 145 141 137 135 132 126 117 115 119 121 119 110 94 84 78 78 85 92 90 84 78 72 67 60 55 55 55 53 50 46 42 39 36 34
147 128 29 88 92 300 332 21 348 99 98 93 58 9 7 67 106 127 153 155 138 128 125 131 145 175 163 148 145 152 154 152 155 158 159 162 164 160 156 154 154 156 157 158 158 155 153 154 153 151 149 147 145 143 138 134 130 121 111 108 112 120 123 114 101 91 84 81 84 87 87 84 80 75 70 65 61 59 56 53 49 45 41 38 35 32
143 136 141 106 113 237 267 358 330 30 87 83 337 345 306 288 122 126 68 37 129 137 139 156 184 172 154 149 151 158 162 162 163 163 162 163 163 161 158 156 156 159 159 158 158 157 156 155 154 153 150 147 146 142 137 133 128 118 109 105 109 117 120 113 102 91 83 80 80 81 82 81 79 77 73 69 65 60 56 52 48 44 40 37 34 31
130 135 146 119 123 196 251 352 5 67 160 237 286 264 230 227 134 124 95 49 69 128 179 178 147 148 153 160 165 167 169 168 165 164 165 166 165 162 159 158 159 161 161 160 160 160 158 156 154 153 149 146 144 141 136 133 126 118 110 106 107 113 114 107 97 86 80 77 75 76 77 78 77 76 74 70 66 61 57 52 48 44 40 36 32 29
121 121 127 90 115 166 277 29 89 186 222 265 310 297 218 167 128 109 81 32 11 340 263 138 141 155 159 162 164 160 159 159 160 164 169 169 168 164 159 159 162 162 162 163 163 162 160 157 154 152 149 147 145 142 138 134 127 120 114 108 106 108 107 101 92 84 78 74 73 73 74 75 76 74 71 67 63 59 56 53 49 45 40 36 32 29
133 129 117 68 91 136 65 56 159 228 276 315 342 344 115 129 129 109 65 328 306 309 196 149 145 151 145 145 150 149 148 149 153 163 170 171 168 165 161 162 165 164 164 164 163 161 160 159 156 153 151 148 147 145 140 134 127 120 117 113 108 105 105 100 92 85 78 73 71 71 70 70 70 68 64 61 58 57 55 52 49 46 42 38 35 32
131 137 125 78 50 131 115 87 342 325 316 308 299 230 175 167 171 146 128 253 254 270 184 148 140 141 138 139 143 143 141 139 137 156 169 170 167 165 164 164 163 162 161 160 160 160 158 159 157 154 152 150 148 146 141 134 128 122 120 120 114 108 105 101 94 87 79 73 70 69 68 65 63 62 60 57 55 54 53 51 48 45 41 38 36 35
82 130 142 130 104 112 110 92 45 26 281 245 227 219 211 207 191 148 121 233 249 214 168 151 142 142 140 139 141 140 138 138 139 166 169 168 166 163 162 161 160 159 159 158 158 158 158 159 157 155 153 151 150 149 143 135 129 126 124 123 119 112 107 103 97 91 82 74 71 69 67 63 60 58 57 55 54 52 50 49 46 43 40 37 36 36
50 53 92 105 110 127 117 130 171 185 241 235 213 205 204 199 183 123 88 265 234 175 160 152 145 147 149 148 148 146 145 154 180 176 168 165 164 162 160 158 158 159 159 160 160 159 158 158 157 156 156 155 154 154 148 138 132 130 126 123 120 115 111 108 101 93 84 77 73 69 66 63 59 56 54 53 53 51 49 47 45 42 40 37 35 35
39 27 53 96 126 151 123 134 204 222 251 242 205 177 184 187 158 103 86 251 203 171 164 158 155 157 156 155 156 157 165 181 174 168 166 162 161 162 161 159 160 160 159 161 162 160 159 159 158 158 160 159 157 156 152 143 136 133 129 125 123 118 116 113 106 96 86 78 74 70 66 62 57 54 53 50 49 49 47 45 44 42 40 37 35 34
30 20 59 115 126 129 121 132 251 258 251 243 188 165 165 159 130 150 233 224 177 170 169 163 161 162 161 161 166 170 176 173 160 159 161 160 159 160 161 160 160 160 159 160 162 161 160 160 158 158 159 159 157 156 156 149 140 137 135 131 129 124 120 117 110 99 88 80 75 71 66 61 56 52 50 47 45 46 45 43 41 40 38 36 34 33
98 46 75 109 112 125 127 117 325 279 248 174 142 157 159 143 173 214 237 176 166 167 168 165 164 165 164 166 170 164 149 151 155 155 158 160 158 157 158 159 159 158 158 158 161 162 160 159 158 157 157 157 156 156 158 153 143 140 139 136 134 129 122 117 111 103 93 83 77 71 65 60 54 50 47 43 41 41 42 40 39 38 37 35 33 33
157 127 131 146 141 120 61 71 120 275 213 149 132 142 177 178 206 185 136 148 165 166 164 165 166 166 166 166 163 153 145 149 154 156 157 159 158 157 159 160 159 158 158 158 160 163 161 160 159 156 156 158 157 157 157 153 145 143 143 141 137 132 124 118 112 105 98 89 80 72 64 58 52 49 46 41 37 37 39 38 36 36 35 33 32 32
183 138 163 220 182 134 103 177 187 265 211 164 148 148 190 175 173 153 140 146 164 168 165 165 167 168 168 163 154 149 148 150 154 157 158 158 158 158 159 160 161 160 160 160 162 163 162 160 157 154 155 159 160 160 159 154 148 146 146 142 138 135 130 123 114 107 104 97 84 73 65 56 52 48 44 40 35 34 37 37 34 34 34 32 31 30
229 173 162 175 178 158 174 212 224 297 229 194 191 118 161 160 145 154 159 160 166 172 172 167 166 169 170 163 153 149 150 153 155 158 159 159 159 159 160 162 162 161 160 161 163 164 164 161 157 152 150 152 155 158 160 156 151 149 148 144 141 142 139 131 120 111 111 107 91 76 66 57 51 47 44 40 34 32 35 36 33 33 32 31 30 29
263 164 129 111 169 213 193 218 266 10 165 193 190 142 157 164 158 160 170 169 169 173 174 170 169 169 168 163 155 151 153 155 156 158 160 160 159 161 162 162 161 161 162 162 163 165 166 163 158 151 147 148 151 154 157 157 153 149 148 148 150 150 147 141 131 121 120 116 100 83 72 59 50 46 44 39 32 30 33 34 33 32 32 32 31 29
290 109 83 80 123 174 299 351 7 47 129 157 151 145 153 161 164 167 175 176 173 173 173 172 170 168 165 162 157 153 154 156 156 158 161 161 161 162 162 161 162 164 165 164 162 162 164 165 162 156 152 154 155 155 157 160 157 150 147 152 160 163 160 153 144 133 126 119 107 92 82 67 52 47 44 38 32 29 30 32 32 32 32 33 32 30
221 155 116 78 101 161 233 265 89 100 126 142 150 160 162 160 165 170 175 176 173 171 172 173 170 166 163 161 159 155 155 157 159 160 162 162 161 162 163 164 166 167 165 163 162 161 162 163 162 160 159 160 160 159 161 163 161 155 151 154 161 167 168 166 158 146 132 122 117 110 92 75 59 51 44 35 29 27 28 29 31 31 32 33 32 30
146 146 161 116 84 82 253 185 125 105 94 141 158 166 168 165 166 167 169 171 170 168 169 169 168 167 164 162 161 158 156 159 162 162 162 161 161 163 166 167 166 165 164 163 164 163 162 161 161 161 161 161 162 164 163 162 162 161 160 160 163 167 171 171 167 161 148 133 129 127 105 81 69 59 44 31 25 24 25 27 29 31 31 32 31 30
119 146 145 105 113 203 229 186 165 140 102 175 164 160 163 168 166 162 162 165 166 167 166 162 161 164 165 164 164 161 159 161 163 163 162 162 164 167 168 166 164 164 165 165 166 166 162 160 162 164 163 163 165 169 168 165 163 163 165 167 169 175 180 180 177 175 166 152 146 140 117 87 75 65 45 28 22 21 23 27 29 30 31 32 32 30
159 176 173 153 166 226 204 177 167 125 104 154 159 157 162 168 166 162 162 165 165 166 166 162 159 159 161 164 166 166 163 162 163 163 162 164 167 168 167 165 165 166 167 169 169 166 162 160 163 165 164 163 166 171 173 172 169 166 168 171 173 179 187 192 193 190 180 172 169 160 125 80 66 55 37 29 25 24 26 29 29 28 29 32 33 32
Height
1477 1481 1483 1482 1483 1484 1485 1487 1488 1490 1492 1493 1495 1496 1496 1496 1495 1492 1492 1491 1487 1496 1507 1504 1503 1507 1507 1510 1511 1512 1513 1514 1515 1515 1515 1516 1518 1519 1520 1521 1522 1524 1526 1529 1530 1531 1532 1534 1535 1537 1539 1540 1542 1543 1544 1545 1545 1546 1546 1546 1546 1546 1546 1547 1547 1548 1548 1549 1548 1548 1548 1549 1549 1549 1549 1549 1549 1549 1548 1548 1548 1547 1546 1546 1546 1546
1476 1481 1480 1479 1481 1482 1483 1485 1487 1490 1491 1493 1495 1496 1498 1498 1495 1492 1493 1493 1487 1496 1511 1508 1506 1510 1510 1513 1514 1513 1516 1517 1516 1516 1516 1517 1517 1520 1521 1521 1523 1524 1527 1529 1531 1532 1533 1534 1536 1538 1539 1541 1542 1543 1544 1545 1546 1546 1547 1546 1547 1547 1547 1547 1547 1547 1548 1548 1548 1548 1548 1548 1549 1548 1548 1548 1548 1548 1548 1547 1547 1546 1545 1545 1545 1544
1478 1479 1478 1478 1480 1481 1482 1485 1487 1489 1491 1494 1496 1498 1500 1498 1495 1494 1495 1495 1491 1498 1512 1511 1510 1515 1515 1516 1518 1517 1518 1520 1520 1518 1519 1519 1517 1520 1522 1522 1523 1524 1527 1529 1531 1532 1533 1535 1536 1538 1540 1541 1543 1543 1544 1546 1546 1547 1547 1547 1547 1547 1547 1547 1547 1547 1547 1548 1548 1548 1548 1548 1548 1548 1548 1548 1547 1547 1547 1547 1546 1546 1545 1544 1543 1543
1480 1477 1475 1477 1480 1480 1482 1485 1487 1489 1491 1494 1496 1499 1501 1497 1495 1498 1501 1500 1496 1499 1508 1511 1513 1517 1518 1519 1520 1520 1520 1522 1523 1522 1523 1522 1519 1520 1523 1523 1524 1524 1527 1530 1531 1532 1534 1535 1537 1538 1540 1542 1543 1544 1545 1546 1546 1547 1548 1548 1548 1548 1547 1548 1548 1548 1547 1548 1548 1548 1548 1548 1548 1548 1548 1547 1546 1546 1546 1546 1546 1545 1544 1543 1542 1542
1476 1472 1472 1476 1479 1479 1481 1484 1487 1489 1492 1495 1495 1496 1499 1497 1495 1499 1503 1502 1501 1504 1505 1509 1519 1522 1521 1523 1523 1523 1524 1524 1525 1525 1524 1523 1522 1523 1524 1525 1526 1526 1528 1531 1532 1533 1535 1535 1537 1539 1540 1542 1543 1544 1545 1546 1547 1548 1548 1548 1548 1548 1548 1548 1548 1548 1548 1548 1548 1548 1548 1547 1547 1547 1547 1546 1546 1545 1545 1545 1545 1544 1543 1542 1541 1541
1474 1469 1470 1475 1478 1479 1480 1483 1485 1487 1492 1495 1493 1492 1495 1495 1495 1500 1504 1504 1513 1519 1510 1508 1523 1528 1524 1525 1526 1526 1527 1525 1525 1525 1524 1524 1524 1525 1526 1526 1527 1528 1529 1531 1533 1534 1536 1536 1537 1539 1541 1542 1543 1544 1545 1546 1547 1548 1548 1548 1548 1548 1549 1549 1548 1548 1548 1548 1548 1548 1547 1547 1547 1546 1545 1545 1545 1544 1544 1544 1544 1544 1543 1542 1541 1540
1471 1469 1469 1472 1476 1479 1480 1482 1483 1485 1492 1496 1490 1488 1491 1492 1496 1503 1504 1507 1519 1522 1509 1505 1518 1527 1527 1525 1524 1526 1529 1526 1523 1524 1523 1524 1525 1526 1527 1528 1528 1528 1529 1531 1534 1535 1536 1536 1537 1539 1541 1543 1543 1544 1545 1546 1547 1547 1548 1548 1548 1548 1549 1549 1548 1548 1548 1548 1548 1547 1547 1546 1546 1545 1545 1544 1543 1543 1543 1543 1543 1543 1543 1541 1541 1540
1466 1468 1470 1471 1474 1478 1480 1482 1481 1482 1490 1494 1487 1485 1490 1491 1495 1501 1501 1505 1512 1512 1508 1507 1510 1521 1527 1523 1520 1524 1527 1526 1523 1522 1523 1524 1525 1526 1528 1529 1530 1529 1530 1532 1533 1534 1536 1537 1539 1540 1542 1543 1544 1544 1545 1546 1547 1547 1547 1548 1548 1548 1549 1549 1548 1548 1548 1548 1547 1547 1546 1546 1545 1545 1544 1543 1543 1542 1542 1542 1542 1542 1542 1541 1541 1540
1462 1466 1469 1470 1474 1478 1477 1478 1479 1480 1486 1488 1484 1484 1487 1487 1490 1495 1499 1503 1506 1510 1516 1514 1509 1519 1527 1520 1518 1524 1526 1526 1524 1521 1522 1524 1524 1526 1529 1530 1530 1530 1531 1533 1533 1535 1537 1538 1540 1542 1542 1543 1544 1545 1546 1546 1546 1547 1547 1548 1548 1548 1548 1548 1548 1548 1547 1547 1547 1546 1546 1546 1545 1545 1544 1544 1543 1542 1541 1541 1541 1541 1541 1541 1540 1539
1461 1463 1466 1468 1472 1473 1472 1474 1476 1479 1483 1483 1482 1482 1483 1486 1489 1493 1498 1502 1506 1513 1516 1514 1509 1518 1528 1522 1519 1525 1523 1520 1522 1521 1521 1524 1525 1526 1529 1530 1530 1531 1534 1535 1535 1536 1538 1539 1541 1543 1543 1544 1545 1545 1546 1546 1546 1547 1547 1548 1548 1548 1548 1547 1548 1547 1547 1546 1546 1546 1546 1545 1545 1544 1544 1544 1543 1542 1542 1541 1541 1540 1540 1539 1538 1538
1460 1461 1463 1465 1467 1468 1469 1472 1475 1477 1480 1480 1482 1482 1484 1488 1490 1494 1498 1501 1511 1517 1510 1507 1508 1512 1523 1522 1516 1517 1513 1510 1517 1522 1522 1524 1526 1527 1529 1531 1532 1533 1535 1536 1536 1537 1538 1540 1542 1543 1544 1544 1545 1546 1546 1546 1546 1547 1547 1548 1548 1548 1548 1547 1547 1547 1546 1546 1545 1545 1545 1544 1544 1544 1543 1543 1543 1542 1541 1540 1540 1539 1539 1538 1537 1536
1461 1462 1463 1461 1462 1465 1468 1472 1475 1476 1478 1480 1482 1484 1490 1494 1494 1498 1501 1503 1514 1516 1503 1502 1507 1508 1514 1516 1511 1509 1507 1506 1512 1519 1521 1524 1527 1528 1529 1531 1532 1534 1536 1537 1537 1538 1540 1541 1542 1543 1544 1545 1545 1546 1547 1547 1547 1547 1548 1548 1548 1548 1548 1547 1547 1547 1546 1545 1545 1544 1544 1543 1543 1543 1542 1542 1541 1541 1539 1539 1538 1537 1537 1536 1535 1534
1463 1462 1461 1459 1460 1463 1467 1473 1478 1478 1479 1482 1484 1487 1496 1503 1504 1506 1509 1511 1512 1507 1501 1500 1504 1508 1511 1512 1511 1508 1507 1509 1512 1517 1522 1525 1528 1529 1531 1533 1534 1536 1537 1538 1539 1541 1541 1542 1543 1544 1545 1546 1546 1546 1548 1548 1548 1548 1548 1548 1548 1548 1548 1548 1547 1546 1546 1545 1544 1544 1543 1543 1543 1542 1542 1541 1540 1539 1538 1537 1536 1535 1534 1534 1533 1533
1469 1465 1460 1460 1460 1459 1463 1472 1478 1480 1481 1483 1485 1489 1497 1505 1511 1514 1517 1517 1510 1502 1502 1501 1501 1508 1512 1513 1513 1509 1508 1511 1514 1519 1523 1526 1529 1531 1533 1534 1536 1538 1539 1539 1541 1542 1542 1543 1545 1546 1546 1547 1546 1546 1548 1549 1549 1548 1548 1548 1548 1548 1548 1547 1547 1546 1546 1545 1544 1543 1542 1542 1542 1542 1541 1540 1538 1537 1536 1535 1534 1534 1533 1532 1532 1531
1473 1470 1461 1458 1459 1456 1459 1465 1469 1474 1478 1480 1480 1483 1491 1495 1500 1507 1508 1506 1503 1503 1506 1505 1505 1511 1512 1511 1513 1509 1508 1512 1516 1522 1525 1527 1530 1532 1534 1536 1537 1539 1540 1541 1542 1543 1544 1545 1546 1546 1547 1547 1546 1547 1549 1549 1549 1548 1548 1549 1548 1548 1548 1547 1547 1547 1546 1545 1544 1543 1542 1542 1542 1541 1540 1539 1538 1537 1536 1535 1534 1533 1532 1531 1531 1530
1469 1467 1455 1452 1455 1453 1456 1460 1461 1468 1476 1478 1477 1479 1486 1484 1484 1496 1500 1497 1498 1503 1508 1511 1515 1517 1514 1514 1514 1510 1510 1515 1519 1523 1526 1528 1531 1533 1535 1536 1538 1540 1541 1542 1543 1544 1545 1545 1546 1547 1547 1547 1546 1548 1549 1549 1548 1548 1548 1549 1549 1548 1548 1547 1547 1547 1546 1545 1544 1543 1542 1542 1541 1541 1540 1539 1538 1537 1536 1535 1534 1533 1532 1531 1530 1529
1466 1464 1452 1451 1454 1450 1453 1456 1457 1464 1471 1477 1478 1478 1479 1475 1477 1490 1501 1504 1501 1500 1509 1520 1521 1520 1519 1517 1516 1514 1514 1518 1521 1523 1526 1528 1531 1533 1535 1536 1539 1540 1541 1542 1543 1544 1545 1546 1546 1547 1547 1547 1547 1548 1549 1549 1549 1549 1549 1549 1548 1548 1548 1548 1548 1547 1546 1545 1544 1543 1542 1542 1541 1540 1540 1539 1538 1537 1536 1535 1534 1533 1532 1531 1530 1529
1461 1461 1451 1450 1453 1450 1450 1454 1455 1456 1462 1471 1475 1473 1473 1476 1480 1483 1492 1505 1504 1501 1514 1523 1521 1519 1519 1518 1518 1518 1518 1519 1521 1523 1525 1529 1531 1532 1535 1537 1539 1540 1541 1543 1544 1544 1545 1546 1547 1547 1548 1548 1548 1549 1549 1549 1549 1549 1549 1549 1548 1548 1548 1548 1548 1547 1546 1545 1544 1543 1542 1542 1541 1540 1540 1539 1538 1537 1536 1535 1534 1533 1532 1531 1529 1528
1455 1458 1452 1447 1450 1449 1448 1455 1460 1457 1456 1460 1462 1463 1468 1478 1484 1483 1488 1498 1501 1510 1522 1521 1519 1519 1516 1515 1516 1516 1517 1518 1520 1523 1525 1527 1530 1531 1534 1537 1539 1541 1542 1543 1544 1545 1546 1546 1547 1547 1548 1548 1549 1549 1549 1549 1550 1549 1549 1549 1548 1548 1548 1547 1547 1546 1546 1545 1544 1543 1542 1542 1542 1541 1540 1539 1538 1538 1537 1535 1534 1533 1532 1531 1529 1528
1452 1458 1456 1447 1445 1447 1449 1455 1461 1460 1457 1456 1458 1461 1464 1470 1475 1478 1484 1487 1491 1511 1523 1516 1517 1517 1508 1509 1511 1510 1513 1515 1516 1521 1524 1526 1530 1531 1534 1537 1538 1540 1541 1542 1544 1545 1546 1547 1547 1548 1549 1549 1549 1549 1550 1550 1550 1550 1550 1549 1549 1549 1548 1548 1547 1547 1546 1545 1544 1543 1542 1542 1542 1542 1541 1540 1539 1539 1537 1536 1534 1533 1532 1531 1530 1528
1451 1458 1457 1450 1447 1449 1451 1451 1453 1457 1457 1458 1462 1466 1465 1467 1470 1473 1481 1483 1486 1504 1516 1515 1517 1511 1500 1501 1504 1505 1509 1512 1514 1518 1522 1526 1529 1531 1533 1536 1538 1539 1541 1543 1544 1545 1546 1546 1547 1548 1549 1550 1550 1550 1550 1550 1550 1550 1550 1550 1550 1549 1549 1548 1547 1547 1546 1545 1544 1543 1543 1543 1543 1542 1542 1541 1540 1539 1538 1536 1535 1534 1533 1531 1530 1528
1451 1456 1457 1453 1451 1451 1448 1444 1445 1449 1451 1453 1457 1462 1464 1464 1469 1475 1484 1488 1487 1492 1502 1506 1505 1501 1498 1498 1499 1504 1508 1511 1515 1518 1521 1526 1528 1530 1533 1534 1537 1539 1541 1543 1544 1544 1545 1546 1547 1548 1549 1550 1550 1550 1550 1550 1551 1551 1551 1550 1550 1550 1549 1548 1548 1547 1547 1545 1545 1544 1544 1544 1543 1543 1543 1541 1540 1539 1538 1537 1535 1534 1533 1531 1530 1528
1448 1453 1455 1454 1451 1449 1445 1441 1443 1444 1445 1448 1450 1455 1460 1459 1463 1471 1478 1484 1486 1488 1495 1498 1493 1495 1501 1499 1498 1505 1509 1512 1517 1519 1521 1526 1527 1529 1532 1534 1537 1539 1541 1543 1544 1544 1545 1546 1547 1548 1549 1550 1550 1550 1551 1551 1551 1551 1551 1551 1551 1550 1549 1549 1548 1548 1547 1546 1545 1545 1545 1545 1544 1544 1543 1542 1541 1540 1538 1537 1536 1534 1533 1531 1530 1529
1446 1452 1455 1454 1450 1446 1442 1441 1443 1443 1444 1448 1449 1452 1455 1455 1456 1461 1466 1472 1479 1485 1491 1493 1492 1498 1502 1500 1500 1506 1510 1514 1518 1519 1521 1525 1527 1529 1531 1534 1537 1539 1541 1543 1543 1544 1546 1546 1547 1548 1549 1550 1550 1551 1551 1551 1551 1552 1552 1552 1551 1550 1550 1549 1549 1548 1547 1547 1546 1546 1546 1545 1545 1545 1544 1543 1542 1540 1539 1538 1537 1535 1534 1532 1531 1529
1447 1453 1456 1458 1458 1454 1451 1448 1447 1447 1446 1446 1448 1450 1451 1452 1454 1459 1464 1468 1475 1483 1483 1481 1490 1502 1503 1501 1504 1507 1511 1515 1517 1519 1521 1522 1526 1529 1531 1534 1536 1538 1541 1543 1543 1545 1546 1547 1547 1547 1549 1550 1550 1551 1551 1551 1552 1552 1553 1553 1552 1551 1550 1550 1549 1548 1548 1547 1547 1547 1547 1546 1546 1546 1545 1544 1542 1541 1540 1539 1537 1536 1535 1533 1531 1530
1446 1451 1454 1459 1464 1464 1462 1457 1453 1452 1450 1448 1448 1449 1450 1452 1452 1456 1463 1468 1473 1482 1482 1479 1491 1506 1506 1504 1506 1508 1510 1514 1516 1518 1520 1521 1524 1527 1529 1532 1535 1537 1540 1541 1543 1545 1546 1547 1548 1548 1549 1550 1550 1551 1551 1552 1552 1553 1553 1553 1552 1552 1551 1550 1550 1549 1549 1548 1548 1548 1548 1548 1547 1546 1545 1544 1543 1542 1541 1539 1538 1537 1535 1534 1532 1531
1444 1449 1449 1451 1455 1456 1453 1449 1448 1449 1449 1449 1449 1448 1450 1451 1450 1452 1460 1465 1469 1477 1483 1486 1494 1503 1505 1505 1506 1507 1508 1511 1514 1517 1519 1522 1524 1526 1529 1532 1534 1537 1539 1540 1543 1545 1546 1547 1548 1548 1549 1550 1551 1551 1552 1552 1553 1553 1553 1553 1553 1553 1552 1552 1551 1551 1550 1550 1549 1549 1549 1548 1548 1547 1546 1545 1544 1543 1541 1540 1539 1538 1536 1534 1533 1531
1441 1446 1448 1448 1450 1451 1449 1448 1447 1445 1445 1448 1448 1448 1450 1452 1452 1452 1455 1460 1465 1471 1481 1492 1496 1497 1500 1501 1500 1502 1505 1507 1511 1514 1517 1521 1523 1526 1529 1531 1533 1536 1538 1540 1542 1544 1546 1547 1548 1549 1549 1550 1551 1552 1552 1553 1553 1554 1554 1554 1554 1553 1553 1553 1553 1552 1552 1551 1550 1550 1549 1549 1548 1548 1547 1546 1544 1543 1542 1541 1540 1538 1537 1535 1533 1532
1436 1443 1447 1448 1450 1452 1453 1453 1450 1447 1450 1455 1453 1451 1453 1454 1453 1451 1452 1458 1460 1460 1470 1487 1493 1490 1492 1494 1494 1497 1500 1503 1508 1512 1516 1520 1523 1525 1528 1530 1533 1536 1537 1540 1542 1543 1545 1546 1547 1549 1550 1551 1552 1552 1553 1554 1554 1555 1555 1555 1555 1554 1555 1555 1554 1553 1553 1552 1551 1551 1550 1550 1550 1549 1548 1547 1545 1544 1542 1541 1540 1539 1537 1536 1534 1533
1433 1440 1445 1445 1449 1452 1453 1455 1454 1450 1453 1460 1460 1459 1457 1455 1454 1454 1459 1464 1463 1460 1468 1481 1489 1488 1487 1490 1493 1497 1501 1504 1508 1513 1516 1519 1522 1524 1527 1529 1532 1535 1537 1539 1541 1543 1544 1546 1547 1549 1549 1551 1552 1553 1554 1554 1555 1556 1556 1556 1556 1556 1556 1556 1555 1555 1554 1553 1552 1552 1552 1551 1551 1550 1549 1547 1546 1545 1544 1542 1541 1540 1538 1537 1535 1534
1432 1440 1444 1443 1449 1456 1455 1457 1457 1452 1452 1459 1466 1466 1461 1457 1458 1461 1465 1468 1468 1472 1478 1482 1488 1492 1490 1491 1495 1499 1502 1505 1508 1512 1515 1517 1520 1523 1526 1529 1531 1534 1536 1539 1541 1543 1545 1546 1547 1548 1549 1551 1552 1553 1554 1555 1556 1557 1556 1557 1557 1557 1558 1557 1557 1556 1555 1554 1553 1553 1553 1552 1551 1551 1550 1548 1547 1546 1545 1544 1542 1541 1539 1538 1536 1534
1431 1441 1446 1443 1448 1458 1458 1459 1461 1455 1451 1456 1463 1468 1467 1461 1460 1463 1466 1466 1466 1474 1484 1487 1488 1489 1488 1490 1496 1499 1501 1503 1506 1509 1512 1516 1519 1521 1524 1527 1530 1532 1535 1538 1540 1543 1544 1546 1548 1549 1550 1551 1552 1553 1554 1555 1556 1557 1557 1558 1558 1559 1559 1558 1558 1558 1556 1555 1555 1554 1554 1553 1552 1551 1550 1550 1549 1547 1546 1545 1543 1542 1540 1539 1537 1535
1431 1438 1446 1446 1450 1458 1459 1460 1462 1456 1450 1454 1462 1470 1472 1468 1465 1465 1467 1468 1468 1471 1479 1481 1478 1477 1481 1486 1492 1497 1499 1500 1501 1504 1508 1513 1518 1521 1523 1525 1528 1531 1534 1537 1540 1542 1544 1546 1548 1549 1550 1551 1553 1554 1555 1556 1557 1558 1558 1559 1559 1560 1560 1559 1559 1559 1558 1557 1556 1555 1555 1554 1553 1552 1552 1551 1550 1549 1547 1546 1544 1543 1541 1539 1538 1536
1432 1434 1444 1449 1450 1456 1460 1461 1462 1457 1453 1460 1469 1471 1471 1469 1467 1466 1468 1471 1471 1472 1474 1472 1470 1473 1478 1482 1484 1488 1492 1494 1498 1502 1505 1508 1513 1518 1522 1524 1526 1530 1533 1536 1539 1542 1544 1546 1548 1549 1551 1552 1553 1554 1556 1557 1558 1558 1559 1560 1560 1561 1560 1560 1560 1560 1559 1558 1558 1557 1556 1555 1555 1554 1553 1552 1551 1550 1549 1547 1545 1544 1542 1541 1539 1537
1433 1436 1447 1453 1452 1457 1462 1461 1459 1460 1462 1467 1471 1469 1468 1469 1468 1469 1472 1473 1473 1474 1474 1471 1470 1472 1475 1479 1483 1487 1491 1495 1500 1504 1507 1508 1510 1513 1518 1522 1525 1528 1532 1535 1538 1541 1544 1545 1547 1549 1551 1552 1554 1555 1556 1558 1558 1559 1560 1561 1561 1561 1561 1561 1561 1561 1560 1559 1559 1559 1558 1557 1556 1555 1554 1553 1552 1551 1549 1548 1546 1545 1543 1541 1539 1537
1431 1436 1445 1456 1458 1458 1462 1462 1460 1465 1471 1473 1472 1469 1469 1470 1468 1466 1469 1472 1473 1473 1473 1472 1473 1475 1478 1483 1488 1492 1496 1500 1503 1506 1508 1510 1511 1512 1515 1519 1523 1526 1530 1534 1537 1540 1543 1545 1547 1549 1551 1552 1554 1555 1557 1558 1559 1560 1561 1562 1562 1562 1562 1562 1562 1561 1561 1560 1560 1560 1559 1558 1557 1556 1555 1554 1552 1551 1550 1548 1547 1546 1544 1543 1541 1539
1428 1432 1438 1451 1462 1464 1467 1471 1472 1472 1472 1470 1469 1468 1465 1465 1464 1459 1461 1468 1472 1472 1472 1473 1474 1477 1481 1486 1490 1494 1497 1502 1506 1509 1510 1511 1513 1514 1516 1519 1522 1526 1530 1534 1538 1541 1543 1545 1547 1549 1551 1553 1554 1555 1557 1559 1560 1561 1561 1562 1563 1563 1563 1563 1562 1562 1562 1562 1561 1561 1560 1559 1558 1557 1556 1554 1553 1552 1550 1549 1548 1547 1545 1544 1541 1539
1427 1429 1429 1440 1460 1469 1469 1471 1475 1473 1465 1459 1461 1461 1459 1459 1460 1457 1459 1466 1470 1470 1471 1473 1474 1477 1481 1486 1491 1495 1498 1503 1507 1508 1508 1511 1513 1516 1518 1521 1524 1527 1531 1534 1538 1541 1543 1545 1547 1549 1551 1553 1554 1556 1557 1559 1560 1561 1562 1562 1563 1563 1564 1563 1563 1563 1563 1562 1562 1561 1561 1560 1559 1558 1557 1555 1554 1553 1552 1551 1549 1548 1546 1544 1542 1540
1430 1433 1432 1439 1458 1467 1460 1458 1466 1466 1457 1452 1455 1457 1458 1458 1458 1459 1461 1463 1466 1469 1470 1472 1475 1478 1480 1484 1487 1490 1495 1501 1505 1505 1505 1508 1512 1516 1519 1522 1526 1529 1532 1535 1538 1540 1543 1545 1547 1550 1551 1553 1554 1556 1558 1559 1561 1561 1562 1563 1563 1564 1564 1564 1564 1564 1564 1563 1563 1562 1561 1561 1560 1559 1558 1557 1555 1554 1553 1552 1550 1549 1547 1545 1543 1540
1432 1435 1438 1443 1455 1460 1455 1455 1463 1461 1454 1453 1455 1456 1458 1458 1458 1462 1463 1460 1461 1465 1466 1468 1472 1476 1479 1483 1485 1486 1488 1490 1494 1498 1503 1507 1511 1516 1519 1521 1525 1528 1531 1535 1538 1541 1543 1545 1547 1550 1551 1553 1554 1556 1558 1559 1561 1561 1562 1563 1563 1564 1564 1564 1565 1565 1564 1564 1563 1563 1562 1561 1561 1560 1559 1558 1557 1555 1554 1553 1552 1550 1548 1546 1543 1541
1440 1442 1446 1448 1452 1456 1454 1455 1459 1458 1452 1453 1455 1455 1456 1458 1461 1464 1459 1453 1455 1461 1462 1464 1468 1471 1475 1479 1481 1483 1485 1486 1489 1496 1503 1508 1512 1516 1519 1522 1525 1528 1531 1534 1538 1540 1543 1545 1548 1550 1551 1553 1554 1556 1558 1559 1560 1561 1562 1563 1563 1564 1564 1565 1565 1565 1565 1564 1564 1563 1563 1562 1562 1561 1559 1559 1558 1557 1555 1554 1553 1551 1549 1546 1544 1542
1443 1447 1451 1452 1454 1458 1457 1456 1459 1457 1451 1451 1455 1456 1457 1459 1460 1458 1452 1449 1453 1457 1459 1463 1467 1470 1474 1477 1479 1481 1484 1488 1494 1499 1504 1507 1511 1515 1519 1523 1526 1529 1532 1534 1537 1540 1543 1545 1548 1550 1551 1553 1554 1556 1558 1559 1560 1561 1562 1563 1564 1564 1565 1565 1565 1565 1565 1565 1564 1564 1563 1563 1562 1561 1560 1560 1559 1558 1556 1555 1553 1551 1549 1547 1545 1542
1441 1443 1448 1452 1456 1460 1461 1460 1459 1455 1449 1448 1453 1456 1457 1456 1453 1450 1449 1452 1455 1457 1460 1464 1467 1471 1474 1477 1480 1482 1483 1488 1496 1501 1505 1508 1511 1514 1519 1522 1525 1528 1531 1534 1537 1540 1542 1545 1547 1549 1551 1553 1554 1556 1557 1559 1560 1561 1562 1563 1564 1564 1565 1565 1565 1566 1565 1565 1564 1564 1564 1563 1563 1562 1562 1561 1560 1559 1557 1555 1554 1552 1550 1548 1545 1543
1441 1442 1447 1451 1451 1453 1455 1454 1451 1448 1447 1448 1448 1449 1451 1450 1448 1447 1449 1453 1458 1460 1462 1464 1468 1472 1474 1476 1479 1481 1483 1488 1495 1501 1506 1510 1512 1515 1518 1521 1524 1527 1530 1534 1537 1540 1542 1544 1547 1548 1550 1552 1554 1556 1557 1558 1559 1561 1562 1563 1563 1564 1565 1565 1566 1566 1566 1565 1565 1565 1564 1564 1563 1563 1562 1562 1561 1559 1558 1556 1554 1552 1550 1548 1546 1544
1441 1442 1444 1445 1447 1449 1449 1448 1447 1447 1448 1449 1447 1447 1448 1448 1449 1450 1449 1451 1456 1459 1461 1464 1467 1472 1475 1476 1478 1481 1483 1488 1494 1500 1506 1510 1513 1515 1518 1521 1524 1527 1530 1534 1537 1540 1542 1544 1546 1548 1550 1552 1554 1555 1557 1559 1560 1561 1561 1562 1563 1564 1565 1565 1565 1566 1566 1565 1565 1565 1565 1564 1564 1564 1563 1562 1561 1560 1558 1556 1555 1553 1551 1549 1547 1545
1442 1443 1441 1442 1447 1450 1448 1447 1448 1447 1447 1448 1448 1448 1448 1448 1450 1451 1451 1452 1454 1457 1460 1464 1466 1470 1474 1476 1478 1481 1485 1488 1494 1501 1507 1510 1513 1516 1519 1522 1525 1528 1531 1534 1537 1540 1542 1544 1546 1548 1549 1551 1554 1555 1557 1559 1560 1561 1562 1562 1563 1564 1565 1565 1565 1566 1566 1566 1566 1565 1565 1565 1565 1564 1563 1563 1562 1560 1559 1557 1555 1553 1552 1550 1548 1546
1443 1443 1443 1445 1447 1447 1446 1447 1449 1448 1448 1449 1449 1448 1449 1450 1450 1451 1452 1453 1455 1458 1461 1464 1467 1471 1476 1477 1479 1482 1486 1490 1494 1501 1507 1510 1513 1516 1519 1522 1526 1529 1531 1534 1536 1539 1542 1544 1546 1548 1549 1551 1553 1555 1557 1559 1560 1561 1562 1562 1563 1564 1564 1565 1565 1566 1566 1566 1566 1565 1565 1565 1565 1564 1564 1563 1562 1561 1559 1557 1556 1554 1552 1551 1549 1547
1443 1442 1444 1447 1448 1448 1448 1449 1449 1449 1449 1449 1448 1449 1449 1450 1451 1452 1453 1454 1457 1460 1463 1466 1469 1473 1476 1479 1481 1483 1488 1492 1495 1500 1506 1510 1513 1516 1519 1522 1526 1529 1532 1534 1536 1539 1541 1543 1545 1547 1549 1551 1553 1555 1557 1558 1560 1561 1562 1563 1563 1564 1564 1565 1565 1565 1566 1566 1566 1566 1566 1565 1565 1565 1564 1563 1562 1561 1559 1558 1556 1555 1553 1552 1550 1548
1441 1441 1444 1448 1450 1451 1450 1449 1449 1449 1449 1449 1449 1449 1450 1450 1451 1453 1455 1456 1458 1461 1464 1468 1471 1474 1477 1480 1482 1485 1489 1494 1497 1500 1505 1510 1514 1517 1519 1522 1526 1529 1532 1534 1537 1539 1541 1543 1545 1547 1549 1551 1553 1555 1557 1558 1559 1561 1562 1562 1563 1564 1564 1564 1565 1565 1566 1566 1566 1566 1566 1565 1565 1565 1564 1563 1562 1561 1560 1558 1557 1555 1554 1553 1551 1549
1441 1442 1445 1447 1449 1448 1445 1445 1446 1446 1446 1449 1449 1450 1450 1452 1452 1453 1455 1457 1459 1461 1465 1469 1473 1476 1479 1482 1484 1486 1490 1495 1499 1502 1506 1510 1513 1516 1519 1522 1526 1529 1532 1535 1537 1539 1541 1543 1545 1547 1549 1551 1553 1555 1556 1558 1559 1560 1561 1562 1563 1563 1564 1564 1564 1565 1565 1565 1566 1566 1565 1565 1565 1565 1564 1563 1562 1561 1560 1559 1557 1556 1555 1553 1552 1550
1439 1441 1442 1442 1441 1440 1440 1442 1444 1444 1445 1448 1450 1450 1452 1453 1453 1454 1457 1459 1461 1463 1466 1469 1472 1476 1480 1483 1486 1488 1491 1495 1500 1504 1507 1510 1513 1516 1519 1522 1525 1529 1532 1535 1537 1539 1541 1543 1545 1547 1549 1551 1553 1554 1556 1557 1559 1560 1561 1562 1562 1563 1563 1564 1564 1565 1565 1565 1565 1565 1565 1565 1565 1564 1564 1563 1562 1561 1560 1559 1558 1557 1556 1554 1553 1551